Showing default

OPS 9324 (IDSCS 11), 2651

Orbit data source: Space-Track

OPS 9324 (IDSCS 11), 2651 is a payload satellite owned by USAF SSD (US) in GEO that was launched on Wed, 18 Jan 1967 UTC via a TITAN IIIC launch vehicle from the Air Force Eastern Test Range (AFETR). Payload-class satellites include a variety of spacecraft equipped with specific instruments for various scientific and technological missions. These include communications satellites like Starlink; space stations such as the ISS; scientific satellites like the Hubble; Earth observation satellites from companies like Planet Labs, Umbra, and HawkEye 360; GPS; miniature CubeSats for education and research; and military/defense satellites.

Loading next visibility...
Identifier
2651, 1967-003D
Orbit
GEO
Country
Flag of USUS
Related business
Manufacturer
Philco-Ford WDL
Mission
Non-operational spacecraft
Bus & Motor
IDCSP, Unknown motor
Mass
45 kg wet, 45 kg dry
Launch date (UTC)
1967-01-18 (60 years ago)
Launch vehicle
TITAN IIIC
Launch site
Air Force Eastern Test Range (AFETR)
Object type
Payload
Rocket body
Debris
Shape & HBR
ICO POLY, 0.5 m
Radar Cross Section
Medium (>0.1 m² and <1 m²)

Expand to show TLE details & history
Last TLE update: 1 day ago

TLE from 1 day ago
0 OPS 9324 (IDSCS 11)
1 02651U 67003D   26206.41250720 -.00000097  00000-0  00000-0 0  9994
2 02651   8.3342  44.7473 0034726  99.6016 164.9658  1.08105359141151
Epoch: 2026-07-25T09:54Z
TLE epoch observation values (Epoch: 2026-07-25T09:54:00.622Z)
Latitude
-8.32107°
Longitude
-142.26188°
Altitude
33,860.287 km
Speed
3.142 km/s
True Right ascension
20h 37m 27s
True Declination
-8° 18' 45"
Sunlit
Object was in daylight at epoch
Visualization orbit readout
Latitude
Unknown
Longitude
Unknown
Altitude
Unknown
Speed
Unknown
Apparent Right ascension
Unknown
Apparent Declination
Unknown
Sunlit
N/A
Visualization observer readout
Local Sidereal Time
10:56:55
Azimuth
Unknown
Elevation
Unknown
Doppler factor
Unknown
Orbital elements
Apogee altitude
33,864.614 km
Perigee altitude
33,586.087 km
Semi-major axis
40,103.488 km
Eccentricity
0.00347
Inclination
8.3342°
RAAN
44.7473°
Arg. of periapsis
99.6016°
True anomaly
165.06859°
Mean anomaly
164.9658°
Eccentric anomaly
165.01724°
Mean motion
0.27025 °/min
Orbital period
1,332.09 mins
BSTAR
0
Loading maneuver chart data...
Computing Atmospheric mass density...
Loading historical data...
Loading historical data...
Loading historical data...
Loading historical data...
Loading historical data...
Loading historical data...
Loading historical data...

Documentation

Showing up to 5 results
|